Regional Weather Roundup
Issued by NWS

Home | Current Version | Previous Version | Graphics & Text | Print | Product List | Glossary On
Versions: 1 2 3 4 5 6 7 8 9 10 11 12 13 14 15 16 17 18 19 20 21 22 23 24 25 26 27 28 29 30 31 32 33 34 35 36 37 38 39 40 41 42 43 44 45 46 47 48 49 50
000
ASUS43 KLOT 231100
RWRIL

ILLINOIS REGIONAL WEATHER ROUNDUP
NATIONAL WEATHER SERVICE CHICAGO/ROMEOVILLE IL
600 AM CDT SAT AUG 23 2014

NOTE: "FAIR" INDICATES FEW OR NO CLOUDS BELOW 12,000 FEET WITH NO
SIGNIFICANT WEATHER AND/OR OBSTRUCTIONS TO VISIBILITY.

* THESE STATIONS ARE NOT UNDER NWS QUALITY CONTROL. THEY ALSO MAY NOT
  REPORT WEATHER SUCH AS PRECIPITATION OR FOG.

ILZ001-002-007-009-015-016-024-231200-
NORTHWEST ILLINOIS

CITY           SKY/WX    TMP DP  RH WIND       PRES   REMARKS
MOLINE         MOCLDY    75  73  93 CALM      29.94R
STERLING*      CLOUDY    72  70  94 E3        29.95S
$$

ILZ003-004-008-010-011-017-018-231200-
NORTH CENTRAL ILLINOIS

CITY           SKY/WX    TMP DP  RH WIND       PRES   REMARKS
ROCKFORD       CLOUDY    73  71  93 SE5       29.97S FOG
FREEPORT*      FOG       73  72  96 E3        29.98S VSB 1/4
ROCHELLE*      MOCLDY    70  69  96 CALM      29.96F FOG
$$

ILZ005-006-012>014-019>023-231200-
NORTHEAST ILLINOIS

CITY           SKY/WX    TMP DP  RH WIND       PRES   REMARKS
CHICAGO-OHARE  CLOUDY    73  69  87 E5        29.97S FOG
CHICAGO-MIDWAY MOCLDY    76  73  91 NE5       29.96S FOG
AURORA         MOCLDY    72  69  90 CALM      29.98R FOG
WAUKEGAN       FOG       70  69  97 NE3       29.97F VSB 1/4
DUPAGE AIRPORT FOG       73  72  96 CALM      29.97R VSB 1/8
WHEELING       CLOUDY    73  71  93 CALM      29.98F FOG
NORTHERLY ISL    N/A     72  71  97 N2          N/A
$$

LMZ740>746-231200-
SOUTHERN LAKE MICHIGAN

STATION/POSITION SKY/WX   TEMP    WIND        PRES    VSBY  WAVE
                          AIR SEA DIR/SP/G                  HT/PER
                          (F)     (DEG/KT/KT) (MB)    (MI)  (FT/S)
SOUTHERN BUOY              70 69  110/  8/  8 1015.2R         1
WAUKEGAN HARBOR            71      40/  6/  7   N/A
HARRISON CRIB              72      50/  4/  4   N/A
BURNHAM HARBOR             72      CALM  /  4   N/A
CALUMET HARBOR             72     330/  2/  3 1013.7F
MICHIGAN CITY              73     160/  3/  4   N/A
MICHIGAN CITY 6N           72 72   90/  2/  4   N/A           0
ST. JOSEPH                 73 72  110/  2/  4   N/A           0
$$

ILZ025>027-034>036-040-047-049-050-058-095>099-231200-
WEST-CENTRAL ILLINOIS

CITY           SKY/WX    TMP DP  RH WIND       PRES   REMARKS
QUINCY         PTCLDY    77  75  93 S5        29.92R
MACOMB*        FOG       72  72 100 CALM      29.94S VSB 1
$$

ILZ028>032-037-038-041>044-048-051>054-059>061-231200-
CENTRAL ILLINOIS

CITY           SKY/WX    TMP DP  RH WIND       PRES   REMARKS
DECATUR        MOCLDY    74  72  93 E5        29.95S FOG
PEORIA         CLEAR     75  72  90 E5        29.93F
SPRINGFIELD    CLEAR     77  75  93 E3        29.92F
TAYLORVILLE    NOT AVBL
$$

ILZ033-039-045-046-055>057-062-063-231200-
EAST-CENTRAL ILLINOIS

CITY           SKY/WX    TMP DP  RH WIND       PRES   REMARKS
CHAMPAIGN      FOG       73  72  96 E6        29.96F VSB 1/2
MATTOON        CLOUDY    75  75 100 SE7       29.95S FOG
$$

ILZ079-100>102-231200-
SOUTHWEST ILLINOIS

CITY           SKY/WX    TMP DP  RH WIND       PRES   REMARKS
BELLEVILLE     CLEAR     74  74 100 CALM      29.92S
CAHOKIA*       CLEAR     76  74  93 S5        29.92F
$$

ILZ064>066-069>071-074>076-080>082-084>086-088>090-092>094-231200-
SOUTH-CENTRAL ILLINOIS

CITY           SKY/WX    TMP DP  RH WIND       PRES   REMARKS
CARBONDALE     CLOUDY    77  74  90 CALM      29.95R
MT. VERNON     PTCLDY    75  72  88 CALM      29.96R
SALEM*         CLEAR     78  77  96 CALM      29.95S FOG     HX  81
$$

ILZ067-068-072-073-078-083-087-091-231200-
SOUTHEAST ILLINOIS

CITY           SKY/WX    TMP DP  RH WIND       PRES   REMARKS
LAWRENCEVILLE  CLEAR     74  73  97 CALM      29.96S
HARRISBURG*    PTCLDY    76  76 100 CALM      29.98R
ROBINSON*      PTCLDY    74  73  98 CALM      29.97R FOG
$$

ABBREVIATIONS USED IN REMARKS
   TC - TEMPERATURE IN CELSIUS
  WCI - WIND CHILL INDEX
   HX - HEAT INDEX
  VSB - VISIBILITY
$$



USA.gov is the U.S. government's official web portal to all federal, state and local government web resources and services.